Simultaneous Nadir Overpasses (SNOs) Predictions

Prediction of SNOs between GOES-16 and LANDSAT-8 Satellite Orbit:

Table of predicted SNOs for the next 14.0 days since TLE Epoch: 12/17/2022
Index Date Time (GOES-16) GOES-16 Lat,Lon LANDSAT-8 Lat,Lon Distance(km) Time Diff (sec)
1 12/18/2022 15:06:57 -0.03, -75.21 -0.33, -73.92 146.72 80
2 12/19/2022 03:31:00 0.03, -75.19 -0.82, -79.10 445.02 80
3 12/20/2022 14:54:44 -0.03, -75.22 -0.97, -70.96 484.65 80
4 12/21/2022 03:18:47 0.03, -75.20 -0.18, -76.14 107.10 80
5 12/23/2022 03:03:54 0.03, -75.21 0.47, -73.18 230.90 80
6 12/23/2022 15:27:49 -0.03, -75.23 0.62, -78.34 352.98 80
7 12/25/2022 15:15:35 -0.03, -75.24 0.02, -75.37 14.52 80
8 12/27/2022 15:03:21 -0.02, -75.27 -0.60, -72.40 325.10 80
9 12/28/2022 03:24:45 0.02, -75.26 -0.48, -77.59 265.98 80
10 12/30/2022 03:09:51 0.02, -75.29 0.16, -74.63 74.82 80
